SUR4070 SPJC-SPQU

Flight info

Callsign SUR4070
Flight time 1h 15m
Altitude 25000
Route AKSOL UT222 ASUPA
Aircraft E175/L-S/1200

Departure

Time 2026-04-27 19:59
Airport Jorge Chávez International Airport (SPJC)

Arrival

Time 2026-04-27 21:14
Airport Rodríguez Ballón International Airport (SPQU)
Time Latitude Longitude Altitude Speed Heading
2026-04-27 19:59 -12.07566 -77.05894 5684 ft 261 kts 146°
2026-04-27 19:59 -12.09048 -77.04859 6037 ft 260 kts 145°
2026-04-27 19:59 -12.10522 -77.03786 6398 ft 264 kts 144°
2026-04-27 20:00 -12.12019 -77.02675 6759 ft 266 kts 144°
2026-04-27 20:00 -12.13506 -77.01560 7121 ft 268 kts 144°
2026-04-27 20:00 -12.15003 -77.00431 7484 ft 269 kts 144°
2026-04-27 20:00 -12.16569 -76.99359 7853 ft 272 kts 148°
2026-04-27 20:01 -12.18154 -76.98328 8201 ft 273 kts 148°
2026-04-27 20:01 -12.19773 -76.97277 8563 ft 274 kts 148°
2026-04-27 20:01 -12.21398 -76.96223 8916 ft 275 kts 148°
2026-04-27 20:01 -12.23038 -76.95159 9199 ft 278 kts 148°
2026-04-27 20:02 -12.24678 -76.94095 9575 ft 280 kts 149°
2026-04-27 20:02 -12.26329 -76.93024 9883 ft 280 kts 149°
2026-04-27 20:02 -12.27992 -76.91945 10185 ft 283 kts 148°
2026-04-27 20:02 -12.29679 -76.90849 10557 ft 294 kts 148°
2026-04-27 20:03 -12.31433 -76.89711 10928 ft 303 kts 148°
2026-04-27 20:03 -12.33239 -76.88538 11450 ft 311 kts 148°
2026-04-27 20:03 -12.35087 -76.87337 11790 ft 320 kts 148°
2026-04-27 20:03 -12.36999 -76.86095 12120 ft 327 kts 148°
2026-04-27 20:04 -12.38930 -76.84840 12487 ft 334 kts 147°
2026-04-27 20:04 -12.40931 -76.83540 12739 ft 341 kts 147°
2026-04-27 20:04 -12.42950 -76.82228 13150 ft 347 kts 147°
2026-04-27 20:04 -12.45001 -76.80895 13482 ft 352 kts 147°
2026-04-27 20:05 -12.47100 -76.79531 13850 ft 357 kts 147°
2026-04-27 20:05 -12.49196 -76.78168 14028 ft 362 kts 147°
2026-04-27 20:05 -12.51332 -76.76778 14367 ft 366 kts 147°
2026-04-27 20:05 -12.53506 -76.75364 14761 ft 370 kts 147°
2026-04-27 20:06 -12.55681 -76.73949 15116 ft 373 kts 147°
2026-04-27 20:06 -12.57911 -76.72498 15551 ft 377 kts 146°
2026-04-27 20:06 -12.60118 -76.71062 15841 ft 379 kts 146°
2026-04-27 20:06 -12.62381 -76.69589 16254 ft 382 kts 146°
2026-04-27 20:07 -12.64614 -76.68135 16559 ft 383 kts 147°
2026-04-27 20:07 -12.66897 -76.66648 16912 ft 386 kts 146°
2026-04-27 20:07 -12.69168 -76.65170 17334 ft 389 kts 146°
2026-04-27 20:07 -12.71458 -76.63676 17563 ft 391 kts 146°
2026-04-27 20:08 -12.73747 -76.62184 17893 ft 393 kts 147°
2026-04-27 20:08 -12.76025 -76.60608 18215 ft 393 kts 138°
2026-04-27 20:08 -12.77900 -76.58543 18571 ft 394 kts 130°
2026-04-27 20:08 -12.79671 -76.56416 18926 ft 395 kts 130°
2026-04-27 20:09 -12.81459 -76.54287 19205 ft 396 kts 131°
2026-04-27 20:09 -12.83274 -76.52129 19591 ft 397 kts 131°
2026-04-27 20:09 -12.85081 -76.49983 19898 ft 397 kts 131°
2026-04-27 20:09 -12.86877 -76.47849 20248 ft 398 kts 132°
2026-04-27 20:10 -12.88692 -76.45693 20633 ft 399 kts 132°
2026-04-27 20:10 -12.90505 -76.43539 20974 ft 399 kts 133°
2026-04-27 20:10 -12.92313 -76.41389 21310 ft 399 kts 133°
2026-04-27 20:10 -12.94118 -76.39244 21611 ft 399 kts 133°
2026-04-27 20:11 -12.95923 -76.37097 21944 ft 399 kts 133°
2026-04-27 20:11 -12.97747 -76.34928 22313 ft 398 kts 133°
2026-04-27 20:11 -12.99541 -76.32793 22680 ft 398 kts 133°
2026-04-27 20:11 -13.01370 -76.30618 23052 ft 398 kts 133°
2026-04-27 20:12 -13.03180 -76.28464 23418 ft 397 kts 133°
2026-04-27 20:12 -13.04980 -76.26321 23783 ft 397 kts 133°
2026-04-27 20:12 -13.06780 -76.24177 24158 ft 396 kts 133°
2026-04-27 20:12 -13.08668 -76.21928 24538 ft 396 kts 133°
2026-04-27 20:13 -13.10566 -76.19667 24922 ft 395 kts 132°
2026-04-27 20:13 -13.12429 -76.17448 25217 ft 397 kts 132°
2026-04-27 20:13 -13.14268 -76.15255 25243 ft 406 kts 132°
2026-04-27 20:13 -13.16134 -76.13030 25261 ft 414 kts 132°
2026-04-27 20:14 -13.18016 -76.10785 25261 ft 422 kts 132°
2026-04-27 20:14 -13.19955 -76.08471 25280 ft 430 kts 132°
2026-04-27 20:14 -13.21920 -76.06126 25278 ft 437 kts 132°
2026-04-27 20:14 -13.23912 -76.03748 25272 ft 444 kts 132°
2026-04-27 20:15 -13.25939 -76.01327 25262 ft 448 kts 132°
2026-04-27 20:15 -13.27981 -75.98888 25246 ft 447 kts 132°
2026-04-27 20:15 -13.29997 -75.96480 25275 ft 447 kts 132°
2026-04-27 20:15 -13.32025 -75.94056 25276 ft 447 kts 132°
2026-04-27 20:16 -13.34060 -75.91625 25344 ft 448 kts 132°
2026-04-27 20:16 -13.36084 -75.89204 25353 ft 448 kts 132°
2026-04-27 20:16 -13.38097 -75.86797 25368 ft 447 kts 132°
2026-04-27 20:16 -13.40137 -75.84356 25393 ft 448 kts 132°
2026-04-27 20:17 -13.42171 -75.81923 25449 ft 446 kts 132°
2026-04-27 20:17 -13.44178 -75.79520 25510 ft 448 kts 132°
2026-04-27 20:17 -13.46216 -75.77080 25496 ft 448 kts 132°
2026-04-27 20:17 -13.48256 -75.74636 25541 ft 447 kts 132°
2026-04-27 20:18 -13.50273 -75.72221 25545 ft 449 kts 132°
2026-04-27 20:18 -13.52309 -75.69782 25530 ft 449 kts 132°
2026-04-27 20:18 -13.54318 -75.67373 25511 ft 448 kts 132°
2026-04-27 20:18 -13.56369 -75.64914 25456 ft 448 kts 132°
2026-04-27 20:19 -13.58380 -75.62502 25471 ft 449 kts 132°
2026-04-27 20:19 -13.60397 -75.60082 25495 ft 450 kts 132°
2026-04-27 20:19 -13.62440 -75.57631 25469 ft 450 kts 132°
2026-04-27 20:19 -13.64475 -75.55187 25485 ft 448 kts 132°
2026-04-27 20:20 -13.66485 -75.52774 25531 ft 450 kts 132°
2026-04-27 20:20 -13.68528 -75.50320 25498 ft 451 kts 132°
2026-04-27 20:20 -13.70573 -75.47863 25520 ft 449 kts 132°
2026-04-27 20:20 -13.72585 -75.45445 25557 ft 449 kts 132°
2026-04-27 20:21 -13.74605 -75.43018 25591 ft 448 kts 132°
2026-04-27 20:21 -13.76641 -75.40570 25618 ft 449 kts 132°
2026-04-27 20:21 -13.78667 -75.38133 25651 ft 450 kts 132°
2026-04-27 20:21 -13.80697 -75.35689 25669 ft 450 kts 132°
2026-04-27 20:22 -13.82742 -75.33229 25682 ft 451 kts 132°
2026-04-27 20:22 -13.84775 -75.30781 25686 ft 449 kts 132°
2026-04-27 20:22 -13.86809 -75.28332 25707 ft 450 kts 132°
2026-04-27 20:22 -13.88861 -75.25860 25698 ft 450 kts 132°
2026-04-27 20:23 -13.90895 -75.23409 25712 ft 450 kts 132°
2026-04-27 20:23 -13.92942 -75.20942 25715 ft 449 kts 132°
2026-04-27 20:23 -13.94992 -75.18470 25688 ft 452 kts 132°
2026-04-27 20:23 -13.97015 -75.16030 25701 ft 450 kts 132°
2026-04-27 20:24 -13.99052 -75.13573 25674 ft 451 kts 132°
2026-04-27 20:24 -14.01086 -75.11118 25707 ft 452 kts 132°
2026-04-27 20:24 -14.03126 -75.08656 25668 ft 451 kts 132°
2026-04-27 20:24 -14.05149 -75.06213 25641 ft 451 kts 132°
2026-04-27 20:25 -14.07221 -75.03710 25641 ft 453 kts 132°
2026-04-27 20:25 -14.09236 -75.01276 25624 ft 452 kts 133°
2026-04-27 20:25 -14.11271 -74.98817 25639 ft 453 kts 133°
2026-04-27 20:25 -14.13300 -74.96363 25640 ft 451 kts 133°
2026-04-27 20:26 -14.15367 -74.93864 25645 ft 452 kts 132°
2026-04-27 20:26 -14.17377 -74.91433 25669 ft 451 kts 132°
2026-04-27 20:26 -14.19434 -74.88944 25688 ft 453 kts 133°
2026-04-27 20:26 -14.21480 -74.86467 25695 ft 453 kts 132°
2026-04-27 20:27 -14.23514 -74.84004 25697 ft 453 kts 132°
2026-04-27 20:27 -14.25530 -74.81563 25712 ft 452 kts 133°
2026-04-27 20:27 -14.27573 -74.79088 25710 ft 453 kts 133°
2026-04-27 20:27 -14.29618 -74.76609 25711 ft 453 kts 133°
2026-04-27 20:28 -14.31677 -74.74113 25706 ft 454 kts 133°
2026-04-27 20:28 -14.33716 -74.71641 25708 ft 451 kts 133°
2026-04-27 20:28 -14.35745 -74.69180 25697 ft 451 kts 133°
2026-04-27 20:28 -14.37086 -74.67553 25704 ft 453 kts 133°
2026-04-27 20:29 -14.39829 -74.64223 25725 ft 452 kts 133°
2026-04-27 20:29 -14.41861 -74.61755 25712 ft 453 kts 133°
2026-04-27 20:29 -14.43891 -74.59290 25709 ft 452 kts 133°
2026-04-27 20:29 -14.45927 -74.56818 25728 ft 453 kts 133°
2026-04-27 20:30 -14.47962 -74.54344 25730 ft 452 kts 133°
2026-04-27 20:30 -14.50007 -74.51859 25735 ft 454 kts 133°
2026-04-27 20:30 -14.52052 -74.49371 25759 ft 453 kts 133°
2026-04-27 20:30 -14.54079 -74.46905 25763 ft 453 kts 133°
2026-04-27 20:31 -14.56131 -74.44409 25763 ft 452 kts 133°
2026-04-27 20:31 -14.58150 -74.41952 25749 ft 453 kts 133°
2026-04-27 20:31 -14.60190 -74.39468 25762 ft 453 kts 133°
2026-04-27 20:31 -14.62241 -74.36971 25768 ft 454 kts 133°
2026-04-27 20:32 -14.64263 -74.34507 25760 ft 454 kts 132°
2026-04-27 20:32 -14.66328 -74.31990 25746 ft 453 kts 133°
2026-04-27 20:32 -14.68360 -74.29513 25742 ft 452 kts 133°
2026-04-27 20:32 -14.70390 -74.27037 25758 ft 453 kts 133°
2026-04-27 20:33 -14.72432 -74.24547 25760 ft 453 kts 133°
2026-04-27 20:33 -14.74451 -74.22083 25750 ft 452 kts 133°
2026-04-27 20:33 -14.76475 -74.19611 25752 ft 454 kts 133°
2026-04-27 20:33 -14.78521 -74.17112 25753 ft 453 kts 133°
2026-04-27 20:34 -14.80519 -74.14557 25747 ft 453 kts 128°
2026-04-27 20:34 -14.82321 -74.11878 25755 ft 455 kts 127°
2026-04-27 20:34 -14.84121 -74.09200 25760 ft 454 kts 127°
2026-04-27 20:34 -14.85904 -74.06553 25765 ft 454 kts 127°
2026-04-27 20:35 -14.87708 -74.03878 25770 ft 455 kts 127°
2026-04-27 20:35 -14.89540 -74.01159 25772 ft 455 kts 127°
2026-04-27 20:35 -14.91332 -73.98499 25776 ft 455 kts 127°
2026-04-27 20:35 -14.93140 -73.95815 25786 ft 455 kts 127°
2026-04-27 20:36 -14.94954 -73.93121 25781 ft 454 kts 127°
2026-04-27 20:36 -14.96764 -73.90432 25782 ft 455 kts 127°
2026-04-27 20:36 -14.98558 -73.87766 25798 ft 456 kts 127°
2026-04-27 20:36 -15.00360 -73.85088 25818 ft 455 kts 127°
2026-04-27 20:37 -15.02178 -73.82385 25828 ft 456 kts 127°
2026-04-27 20:37 -15.03979 -73.79705 25831 ft 455 kts 127°
2026-04-27 20:37 -15.05794 -73.77003 25834 ft 456 kts 127°
2026-04-27 20:37 -15.07582 -73.74343 25859 ft 455 kts 127°
2026-04-27 20:38 -15.09409 -73.71621 25847 ft 456 kts 127°
2026-04-27 20:38 -15.11203 -73.68948 25838 ft 457 kts 127°
2026-04-27 20:38 -15.13018 -73.66245 25845 ft 456 kts 127°
2026-04-27 20:38 -15.14820 -73.63557 25849 ft 457 kts 127°
2026-04-27 20:39 -15.16649 -73.60831 25852 ft 456 kts 127°
2026-04-27 20:39 -15.18438 -73.58161 25834 ft 457 kts 127°
2026-04-27 20:39 -15.20265 -73.55434 25834 ft 456 kts 127°
2026-04-27 20:39 -15.22061 -73.52754 25840 ft 456 kts 127°
2026-04-27 20:40 -15.23885 -73.50030 25820 ft 456 kts 127°
2026-04-27 20:40 -15.25689 -73.47336 25830 ft 457 kts 127°
2026-04-27 20:40 -15.27496 -73.44636 25830 ft 458 kts 127°
2026-04-27 20:40 -15.29291 -73.41952 25832 ft 457 kts 127°
2026-04-27 20:41 -15.31118 -73.39219 25812 ft 457 kts 127°
2026-04-27 20:41 -15.32915 -73.36531 25830 ft 457 kts 127°
2026-04-27 20:41 -15.34744 -73.33794 25827 ft 459 kts 127°
2026-04-27 20:41 -15.36537 -73.31110 25821 ft 458 kts 127°
2026-04-27 20:42 -15.38361 -73.28378 25805 ft 458 kts 127°
2026-04-27 20:42 -15.40179 -73.25654 25781 ft 459 kts 127°
2026-04-27 20:42 -15.41984 -73.22950 25741 ft 458 kts 127°
2026-04-27 20:42 -15.43800 -73.20227 25754 ft 459 kts 127°
2026-04-27 20:43 -15.45610 -73.17513 25743 ft 461 kts 127°
2026-04-27 20:43 -15.47419 -73.14799 25760 ft 460 kts 127°
2026-04-27 20:43 -15.49242 -73.12062 25781 ft 459 kts 127°
2026-04-27 20:43 -15.51043 -73.09360 25788 ft 459 kts 127°
2026-04-27 20:44 -15.52876 -73.06607 25789 ft 461 kts 127°
2026-04-27 20:44 -15.54676 -73.03902 25791 ft 459 kts 127°
2026-04-27 20:44 -15.56514 -73.01141 25763 ft 462 kts 127°
2026-04-27 20:44 -15.58330 -72.98408 25774 ft 459 kts 127°
2026-04-27 20:45 -15.60084 -72.95770 25746 ft 436 kts 127°
2026-04-27 20:45 -15.61763 -72.93241 25715 ft 410 kts 127°
2026-04-27 20:45 -15.63337 -72.90874 25725 ft 386 kts 128°
2026-04-27 20:45 -15.64801 -72.88670 25718 ft 364 kts 128°
2026-04-27 20:46 -15.66207 -72.86555 25711 ft 343 kts 128°
2026-04-27 20:46 -15.67517 -72.84582 25734 ft 326 kts 129°
2026-04-27 20:46 -15.68807 -72.82642 25793 ft 328 kts 129°
2026-04-27 20:46 -15.70094 -72.80705 25871 ft 329 kts 128°
2026-04-27 20:47 -15.71389 -72.78754 25826 ft 333 kts 129°
2026-04-27 20:47 -15.72687 -72.76798 25798 ft 331 kts 128°
2026-04-27 20:47 -15.73997 -72.74822 25817 ft 332 kts 128°
2026-04-27 20:47 -15.75294 -72.72865 25811 ft 333 kts 129°
2026-04-27 20:48 -15.76620 -72.70863 25794 ft 333 kts 128°
2026-04-27 20:48 -15.77934 -72.68881 25724 ft 334 kts 128°
2026-04-27 20:48 -15.79235 -72.66917 25480 ft 334 kts 128°
2026-04-27 20:48 -15.80558 -72.64917 25167 ft 331 kts 128°
2026-04-27 20:49 -15.81841 -72.62980 24862 ft 328 kts 128°
2026-04-27 20:49 -15.83123 -72.61041 24561 ft 327 kts 128°
2026-04-27 20:49 -15.84403 -72.59108 24240 ft 326 kts 128°
2026-04-27 20:49 -15.85675 -72.57185 23806 ft 320 kts 128°
2026-04-27 20:50 -15.86923 -72.55297 23364 ft 310 kts 128°
2026-04-27 20:50 -15.88294 -72.53658 22954 ft 294 kts 145°
2026-04-27 20:50 -15.89868 -72.52341 22532 ft 284 kts 147°
2026-04-27 20:50 -15.91383 -72.51089 22110 ft 276 kts 147°
2026-04-27 20:51 -15.92875 -72.49860 21724 ft 272 kts 147°
2026-04-27 20:51 -15.94355 -72.48644 21369 ft 271 kts 146°
2026-04-27 20:51 -15.95840 -72.47424 21006 ft 270 kts 146°
2026-04-27 20:51 -15.97296 -72.46227 20650 ft 270 kts 146°
2026-04-27 20:52 -15.98781 -72.45006 20296 ft 268 kts 146°
2026-04-27 20:52 -16.00221 -72.43821 19946 ft 265 kts 146°
2026-04-27 20:52 -16.01667 -72.42632 19571 ft 262 kts 145°
2026-04-27 20:52 -16.03083 -72.41468 19198 ft 258 kts 145°
2026-04-27 20:53 -16.04477 -72.40321 18832 ft 255 kts 145°
2026-04-27 20:53 -16.05868 -72.39176 18444 ft 252 kts 144°
2026-04-27 20:53 -16.07234 -72.38053 18093 ft 250 kts 144°
2026-04-27 20:53 -16.08585 -72.36941 17747 ft 247 kts 144°
2026-04-27 20:54 -16.11274 -72.34727 17032 ft 244 kts 143°
2026-04-27 20:54 -16.12592 -72.33642 16647 ft 241 kts 143°
2026-04-27 20:54 -16.13909 -72.32557 16270 ft 240 kts 143°
2026-04-27 20:55 -16.15190 -72.31502 15902 ft 237 kts 143°
2026-04-27 20:55 -16.16480 -72.30439 15524 ft 234 kts 143°
2026-04-27 20:55 -16.17743 -72.29398 15153 ft 232 kts 143°
2026-04-27 20:55 -16.19004 -72.28359 14761 ft 229 kts 143°
2026-04-27 20:56 -16.20243 -72.27337 14389 ft 226 kts 142°
2026-04-27 20:56 -16.21475 -72.26321 13993 ft 223 kts 142°
2026-04-27 20:56 -16.22690 -72.25320 13635 ft 221 kts 142°
2026-04-27 20:56 -16.23879 -72.24339 13277 ft 218 kts 142°
2026-04-27 20:57 -16.25063 -72.23363 12882 ft 217 kts 142°
2026-04-27 20:57 -16.26237 -72.22395 12487 ft 216 kts 142°
2026-04-27 20:57 -16.27414 -72.21423 12122 ft 216 kts 142°
2026-04-27 20:57 -16.28602 -72.20442 11768 ft 216 kts 142°
2026-04-27 20:58 -16.29769 -72.19479 11405 ft 215 kts 142°
2026-04-27 20:58 -16.30933 -72.18517 11049 ft 210 kts 142°
2026-04-27 20:58 -16.32065 -72.17583 10675 ft 207 kts 142°
2026-04-27 20:58 -16.33191 -72.16653 10317 ft 205 kts 142°
2026-04-27 20:59 -16.34284 -72.15750 10046 ft 199 kts 142°
2026-04-27 20:59 -16.35377 -72.14847 10017 ft 198 kts 142°
2026-04-27 20:59 -16.36445 -72.13957 10244 ft 201 kts 140°
2026-04-27 20:59 -16.37143 -72.12706 9897 ft 202 kts 96°
2026-04-27 21:00 -16.37082 -72.11271 10084 ft 201 kts 86°
2026-04-27 21:00 -16.37385 -72.09888 10021 ft 202 kts 128°
2026-04-27 21:00 -16.38545 -72.09058 10062 ft 206 kts 153°
2026-04-27 21:00 -16.39537 -72.08008 9990 ft 204 kts 121°
2026-04-27 21:01 -16.40130 -72.06677 9991 ft 203 kts 112°
2026-04-27 21:01 -16.40648 -72.05318 10025 ft 203 kts 112°
2026-04-27 21:01 -16.41172 -72.03942 10039 ft 204 kts 112°
2026-04-27 21:01 -16.41690 -72.02563 10044 ft 205 kts 112°
2026-04-27 21:02 -16.42203 -72.01196 10051 ft 204 kts 112°
2026-04-27 21:02 -16.42724 -71.99804 10021 ft 205 kts 112°
2026-04-27 21:02 -16.43231 -71.98441 10036 ft 203 kts 112°
2026-04-27 21:02 -16.43747 -71.97057 10076 ft 205 kts 112°
2026-04-27 21:03 -16.44260 -71.95664 10068 ft 205 kts 112°
2026-04-27 21:03 -16.44767 -71.94274 9989 ft 207 kts 112°
2026-04-27 21:03 -16.45274 -71.92888 9865 ft 204 kts 112°
2026-04-27 21:03 -16.45539 -71.91448 9797 ft 204 kts 92°
2026-04-27 21:04 -16.45543 -71.89971 9819 ft 205 kts 91°
2026-04-27 21:04 -16.45544 -71.88477 9815 ft 206 kts 91°
2026-04-27 21:04 -16.45545 -71.86977 9782 ft 206 kts 91°
2026-04-27 21:04 -16.45545 -71.85490 9778 ft 205 kts 91°
2026-04-27 21:05 -16.45544 -71.84009 9786 ft 205 kts 91°
2026-04-27 21:05 -16.45542 -71.82520 9739 ft 205 kts 91°
2026-04-27 21:05 -16.45542 -71.81030 9722 ft 206 kts 91°
2026-04-27 21:05 -16.45541 -71.79537 9701 ft 206 kts 91°
2026-04-27 21:06 -16.45540 -71.78050 9700 ft 205 kts 91°
2026-04-27 21:06 -16.45539 -71.76567 9697 ft 205 kts 91°
2026-04-27 21:06 -16.45537 -71.75072 9687 ft 205 kts 91°
2026-04-27 21:06 -16.45534 -71.73595 9653 ft 205 kts 91°
2026-04-27 21:07 -16.45532 -71.72115 9634 ft 205 kts 91°
2026-04-27 21:07 -16.45528 -71.70611 9613 ft 205 kts 91°
2026-04-27 21:07 -16.45525 -71.69127 9593 ft 205 kts 91°
2026-04-27 21:07 -16.45520 -71.67653 9570 ft 205 kts 91°
2026-04-27 21:08 -16.45476 -71.66162 9531 ft 206 kts 82°
2026-04-27 21:08 -16.45195 -71.64706 9507 ft 205 kts 79°
2026-04-27 21:08 -16.44901 -71.63260 9488 ft 204 kts 79°
2026-04-27 21:08 -16.44606 -71.61813 9455 ft 199 kts 79°
2026-04-27 21:09 -16.44329 -71.60463 9305 ft 186 kts 79°
2026-04-27 21:09 -16.44066 -71.59190 9138 ft 176 kts 79°
2026-04-27 21:09 -16.43774 -71.57973 9079 ft 171 kts 76°
2026-04-27 21:09 -16.43461 -71.56760 9103 ft 175 kts 76°
2026-04-27 21:10 -16.43142 -71.55530 9107 ft 177 kts 76°
2026-04-27 21:10 -16.42822 -71.54295 9110 ft 177 kts 76°
2026-04-27 21:10 -16.42504 -71.53067 9106 ft 176 kts 76°
2026-04-27 21:10 -16.42181 -71.51822 9120 ft 176 kts 76°
2026-04-27 21:11 -16.41863 -71.50594 9123 ft 177 kts 76°
2026-04-27 21:11 -16.41379 -71.49413 9109 ft 176 kts 59°
2026-04-27 21:11 -16.40726 -71.48347 9330 ft 176 kts 58°
2026-04-27 21:11 -16.39848 -71.47475 9486 ft 176 kts 21°
2026-04-27 21:12 -16.38667 -71.47337 9799 ft 171 kts 360°
2026-04-27 21:12 -16.37452 -71.47372 10089 ft 174 kts 355°
2026-04-27 21:12 -16.36264 -71.47591 10341 ft 175 kts 333°
2026-04-27 21:12 -16.35462 -71.48497 10573 ft 173 kts 294°
2026-04-27 21:13 -16.35022 -71.49677 10325 ft 177 kts 290°
2026-04-27 21:13 -16.34675 -71.50880 9916 ft 174 kts 286°
2026-04-27 21:13 -16.34414 -71.52110 9427 ft 174 kts 281°
2026-04-27 21:13 -16.34283 -71.53320 9054 ft 166 kts 276°
2026-04-27 21:14 -16.34210 -71.54484 8724 ft 163 kts 275°
2026-04-27 21:14 -16.34140 -71.55658 8492 ft 163 kts 275°
2026-04-27 21:14 -16.34080 -71.56631 8437 ft 87 kts 276°
2026-04-27 21:14 -16.34058 -71.57041 8412 ft 33 kts 277°
2026-04-27 21:15 -16.34061 -71.57210 8401 ft 18 kts 242°
2026-04-27 21:15 -16.34097 -71.57224 8396 ft 0 kts 165°
2026-04-27 21:15 -16.34103 -71.57223 8395 ft 5 kts 163°
2026-04-27 21:15 -16.34155 -71.57182 8391 ft 10 kts 135°
2026-04-27 21:16 -16.34201 -71.57117 8390 ft 11 kts 120°
2026-04-27 21:16 -16.34246 -71.57044 8389 ft 12 kts 113°
2026-04-27 21:16 -16.34285 -71.56966 8389 ft 12 kts 121°
2026-04-27 21:16 -16.34312 -71.56922 8389 ft 3 kts 122°
2026-04-27 21:17 -16.34329 -71.56896 8389 ft 4 kts 123°
2026-04-27 21:17 -16.34349 -71.56862 8388 ft 6 kts 120°
2026-04-27 21:17 -16.34371 -71.56822 8387 ft 5 kts 121°
2026-04-27 21:17 -16.34376 -71.56815 8387 ft 0 kts 120°